Location: Igon
(43.1667°N, 0.2333°W)
Time: 21:30:03
(UTC+00:00)

EO 1 Delta rocket - Pass Details

Date: 29 November 2020
Orbit: 698 x 1791 km, 95.4° (Epoch: 20 January)

Event Time Altitude Azimuth Distance (km) Brightness Sun altitude
Rises 05:37:42 0° 169° (S) 3,447 7.7 -16.6°
Reaches altitude 10° 05:40:14 10° 169° (S) 2,400 6.9 -16.2°
Maximum altitude 05:45:22 90° 262° (W) 739 3.9 -15.3°
Drops below altitude 10° 05:50:01 10° 351° (N) 2,173 6.1 -14.4°
Sets 05:52:13 0° 351° (N) 3,095 6.9 -14.1°
